This is the latest recevied weather packets stored in our database for station/object W1HS. If no packets are shown the sender has not sent any weather packets the latest 10 day(s).
| Time | Temp. | Humidity | Pressure | Rain* | Wind** | Luminosity | Snow |
|---|---|---|---|---|---|---|---|
| 1777667600 | 13.33° C | 39% | 989.6 hPa | 0 mm | - | 629 W/m² | - |
| 1777667002 | 13.33° C | 42% | 989.6 hPa | 0 mm | - | 666 W/m² | - |
| 1777666400 | 13.33° C | 39% | 989.7 hPa | 0 mm | - | 707 W/m² | - |
| 1777665802 | 12.78° C | 40% | 989.8 hPa | 0 mm | - | 770 W/m² | - |
| 1777665200 | 13.33° C | 41% | 989.9 hPa | 0 mm | - | 874 W/m² | - |
| 1777664600 | 13.33° C | 39% | 989.9 hPa | 0 mm | - | 800 W/m² | - |
| 1777664000 | 13.33° C | 39% | 989.9 hPa | 0 mm | - | 806 W/m² | - |
| 1777663400 | 13.33° C | 44% | 990 hPa | 0 mm | - | 851 W/m² | - |
| 1777662800 | 13.33° C | 41% | 990.1 hPa | 0 mm | - | 1030 W/m² | - |
| 1777662200 | 13.33° C | 41% | 990.3 hPa | 0 mm | - | 895 W/m² | - |
| 1777661600 | 12.78° C | 41% | 990.3 hPa | 0 mm | - | 916 W/m² | - |
| 1777661000 | 12.22° C | 38% | 990.4 hPa | 0 mm | - | 1018 W/m² | - |
| 1777660400 | 12.78° C | 40% | 990.4 hPa | 0 mm | - | 951 W/m² | - |
| 1777659800 | 13.33° C | 39% | 990.2 hPa | 0 mm | - | 1027 W/m² | - |
| 1777659202 | 12.78° C | 44% | 990.4 hPa | 0 mm | - | 1088 W/m² | - |
| 1777658599 | 12.78° C | 41% | 990.5 hPa | 0 mm | - | 1060 W/m² | - |
| 1777658000 | 12.22° C | 41% | 990.5 hPa | 0 mm | - | 1011 W/m² | - |
| 1777657402 | 12.22° C | 45% | 990.5 hPa | 0 mm | - | 1158 W/m² | - |
| 1777656800 | 11.67° C | 45% | 990.4 hPa | 0 mm | - | 1044 W/m² | - |
| 1777656199 | 11.67° C | 46% | 990.5 hPa | 0 mm | - | 1007 W/m² | - |
| 1777655601 | 11.67° C | 47% | 990.4 hPa | 0 mm | - | 1017 W/m² | - |
| 1777654999 | 11.11° C | 49% | 990.4 hPa | 0 mm | - | 1097 W/m² | - |
| 1777654399 | 11.11° C | 50% | 990.4 hPa | 0 mm | - | 995 W/m² | - |
| 1777653799 | 11.11° C | 52% | 990.5 hPa | 0 mm | - | 1033 W/m² | - |
| 1777653199 | 10.56° C | 52% | 990.6 hPa | 0 mm | - | 1046 W/m² | - |
* Rain latest hour (hover to see other rain measurements)
** Current wind speed in m/s (hover to see current wind gust speed)